Location: Newark
(25.0000°N, 73.5000°E)
Time: 11:19:13
(UTC+00:00)

Altair - Pass Details

Date: 09 March 2021
Orbit: 1501 x 1683 km, 47.2° (Epoch: 15 April)

Event Time Altitude Azimuth Distance (km) Brightness Sun altitude
Rises 08:17:02 0° 174° (S) 4,673 10.4 57.2°
Reaches altitude 10° 08:22:30 10° 148° (SSE) 3,665 9.8 56.6°
Maximum altitude 08:26:11 13° 124° (SE) 3,422 9.5 56.1°
Drops below altitude 10° 08:29:51 10° 100° (E) 3,647 9.5 55.7°
Sets 08:35:10 0° 74° (ENE) 4,630 9.7 55.0°
